Location: Lower Kingswood
(51.2667°N, 0.2167°W)
Time: 11:34:49
(UTC+00:00)

CZ-2C R/B - Pass Details

Date: 26 September 2023
Orbit: 667 x 780 km, 98.3° (Epoch: 10 December)

Event Time Altitude Azimuth Distance (km) Brightness Sun altitude
Rises 04:26:39 0° 10° (N) 3,191 6.1 -14.1°
Reaches altitude 10° 04:29:04 10° 4° (N) 2,246 5.2 -13.8°
Maximum altitude 04:33:41 42° 294° (WNW) 1,018 2.8 -13.1°
Enters shadow 04:37:26 14° 228° (SW) 1,896 4.0 -12.5°
